Location: Armidale
(30.5016°S, 151.6662°E)
Time: 13:26:25
(UTC+10:00)

BEESAT 3 - Pass Details

Date: 29 July 2021
Orbit: 483 x 509 km, 64.9° (Epoch: 26 September)

Event Time Altitude Azimuth Distance (km) Brightness Sun altitude
Rises 19:02:41 0° 324° (NW) 2,607 ? -22.5°
Reaches altitude 10° 19:04:53 10° 319° (NW) 1,726 ? -23.0°
Maximum altitude 19:08:40 54° 241° (WSW) 628 ? -23.8°
Enters shadow 19:09:02 51° 217° (SW) 648 ? -23.9°
